Погода в Бажино

Россия / Пермский край     59°07′33″N   55°24′03″E
темп.,
°C
ветер,
м/с
пор.,
м/с
влажн.,
%
обл.,
%
осадки,
мм/ч
давл.,
гПа
погр.,
м
14 августа, вс
вс1423:00+14сз116198 0.0 101920
02:00+13з2564100 0.0 1020140
05:00+12з256399 0.0 1020129
08:00+13зсз2671100 0.0 1021205
11:00+16ссз235984 0.0 1021568
14:00+20сз364194 0.0 10212420
17:00+18з146034 0.0 1021374
20:00+16сз236682 0.0 102177
15 августа, пн
пн1523:00+11ссз22703 0.0 102211
02:00+9с11810 0.0 102210
05:00+8ссв118513 0.0 102310
08:00+12ссв006915 0.0 1024111
11:00+18сз12495 0.0 1023854
14:00+20сз34395 0.0 10231909
17:00+21сз344015 0.0 10221960
20:00+17з226722 0.0 102216
16 августа, вт
вт1623:00+16зюз226581 0.0 102348
02:00+14зсз247034 0.0 102399
05:00+13сз24717 0.0 1024116
08:00+14ссз26730 0.0 1025189
11:00+19ссз35475 0.0 1025972
14:00+21ссз463912 0.0 10251802
17:00+21ссз4637100 0.0 10241651
20:00+16с2264100 0.0 102517
17 августа, ср
ср1723:00+12с116797 0.0 102510
02:00+11зсз116748 0.0 102510
05:00+11зюз226955 0.0 102434
08:00+13зюз12675 0.0 1024106
11:00+20зсз255043 0.0 1022665
14:00+23сз365074 0.0 10211500
17:00+22с366220 0.3 1020911
20:00+18ссв238584 0.7 102061
18 августа, чт
чт1823:00+14всв24968 2.3 102183
02:00+10св24968 0.0 102282
05:00+10св229591 0.0 102260
08:00+11св2791100 0.0 1023229
11:00+13ссв267748 0.0 1023409
14:00+19св46385 0.0 10231820
17:00+19св34385 0.0 10231943
20:00+14св22642 0.0 102413